TJS-2 (41911 NORAD) Tracking and Keplerian Element Data

This shows tracking and keplerian element data for the satellite.

Feedback or suggestion? Click here.




ElementValue
Catalog41911
NameTJS-2
Epoch Orbit578
Epoch Day202.9020599
Epoch Year2018
RAAN97.6487
Inclination0.1866
Eccentricity0.0001099
Argument of Perigee165.4486
Mean Anonmoly108.6842
Mean Motion1.0026564
Decay Rate-3.55E-06
L11 41911U 17001A 18202.90205990 -.00000355 00000-0 00000+0 0 9995
L22 41911 0.1866 97.6487 0001099 165.4486 108.6842 1.00265640 5786

Live tracking and technical data element details for TJS-2 (NORAD 41911). TJS-2 can be tracked NOW for your location showing map with azimuth and elevation plus other details from your city location.

Track the satellite on the map from your city or location and see movement details for azimuth, elevation, latitude, longitude, range, height, and movement on the map or in text.







IsCatalogInMostPopularTable: catalog: 41911, numindb: 84
Update: records affected: 1



GetName: 41911 TJS-2

Hit Count: updated at: Mon, 23 Jul 2018 07:40:51 GMT